Regional Weather Roundup
Issued by NWS

Home | Current Version | Previous Version | Graphics & Text | Print | Product List | Glossary On
Versions: 1 2 3 4 5 6 7 8 9 10 11 12 13 14 15 16 17 18 19 20 21 22 23 24 25 26 27 28 29 30 31 32 33 34 35 36 37 38 39 40 41 42 43 44 45 46 47 48 49 50
000
ASUS45 KCYS 220710
RWRWY

WYOMING REGIONAL WEATHER ROUNDUP
NATIONAL WEATHER SERVICE CHEYENNE WY
100 AM MDT SUN APR 22 2018

NOTE:  "FAIR" INDICATES FEW OR NO CLOUDS BELOW 12,000 FEET
WITH NO SIGNIFICANT WEATHER AND/OR OBSTRUCTIONS TO VISIBILITY.

WYZ001-220800-
YELLOWSTONE NATIONAL PARK

CITY           SKY/WX    TMP DP  RH WIND       PRES   REMARKS
LK YELLOWSTONE   N/A     27  24  89 CALM      30.26R
W YELLOWSTONE  NOT AVBL

$$
WYZ002>013-054>058-071-098>099-220800-
NORTHERN WYOMING

CITY           SKY/WX    TMP DP  RH WIND       PRES   REMARKS
JACKSON        FAIR      40  27  59 CALM      30.21R
CODY           FAIR      55  27  34 S7        30.09R
GREYBULL       FAIR      49  37  63 SE5       30.03S
WORLAND        FAIR      39  32  76 CALM      30.05R
SHERIDAN       FAIR      41  35  79 MISG      30.06R
BUFFALO        FAIR      46  33  60 W7        30.07S
GILLETTE       FAIR      42  36  79 S13       30.07S
HULETT         FAIR      45  34  65 SW12      30.09S
NEWCASTLE      FAIR      37  32  81 E14       30.14F WCI  29

$$
WYZ014>020-022>026-101>103-220800-
CENTRAL WYOMING

CITY           SKY/WX    TMP DP  RH WIND       PRES   REMARKS
BIG PINEY      FAIR      34  23  64 N12       30.22S WCI  25
PINEDALE       FAIR      32  25  74 W10       30.24R WCI  24
DUBOIS         FAIR      34  23  64 W12       30.20S WCI  25
LANDER         FAIR      49  26  41 W7        30.10R
RIVERTON       FAIR      51  25  36 W20       30.09R
CASPER         FAIR      37  36  96 E5        30.11R WCI  33
DOUGLAS        FAIR      34  34 100 SE8       30.12S WCI  27

$$
WYZ021-027>030-104>119-220800-
SOUTHERN WYOMING

CITY           SKY/WX    TMP DP  RH WIND       PRES   REMARKS
EVANSTON       FAIR      43  24  47 S5        30.26R
KEMMERER       FAIR      37  28  70 NW9       30.25R WCI  31
FORT BRIDGER   FAIR      45  26  47 SW10      30.27R
ROCK SPRINGS   FAIR      45  25  45 W14       30.20R
DIXON          FAIR      37  32  82 E3        30.23R
RAWLINS          N/A    N/A N/A N/A MISG      30.16R
SARATOGA       FAIR      37  32  81 SE12      30.19S WCI  30
LARAMIE        FAIR      29  28  96 S6        30.16R WCI  23
CHEYENNE       CLOUDY    34  34 100 S10       30.14S FOG     WCI  26
TORRINGTON     FAIR      35  35 100 E10       30.14S WCI  27
PINE BLUFFS    FAIR      32  32 100 MISG      30.16S

$$



USA.gov is the U.S. government's official web portal to all federal, state and local government web resources and services.